{"data":{"norad_id":68733,"epoch":"2026-09-20T01:29:32.664768Z","epoch_age_seconds":79199,"freshness":"FRESH","line1":"1 68733U 26082F   26263.06218362  .00010352  00000+0  32248-3 0  9994","line2":"2 68733  97.2849 125.3007 0001742  89.3491 270.7951 15.33451427 24242","mean_motion":15.33451427,"eccentricity":0.0001742,"inclination_deg":97.2849,"raan_deg":125.3007,"arg_perigee_deg":89.3491,"mean_anomaly_deg":270.7951,"bstar":0.00032248,"rev_number":2424,"period_min":93.905811077249,"perigee_km":464.33188655938,"apogee_km":466.71621807001,"semimajor_km":6843.6610523147,"source":"CELESTRAK","updated_at":"2026-09-20T09:00:43.990903Z"}}